Theta_e
354 355 354 355 354 354 354 354 354 354 352 354 354 353 353 352 353 352 352 351 351 351 350 351 350 349 349 348 347 348 349 351 350 348 346 344 342 342 343 343 344 347 347 346 344 342 340 341 342 342 343 345 345 346 345 344 344 344 343 343 343 344 344 344 343 344 344 344 343 344 345 345 344 343 342 341 342 343 344 344 342 341 340 340 340
354 355 355 355 355 354 355 353 354 354 353 353 353 353 353 354 354 353 352 352 351 351 350 350 350 349 349 348 347 347 348 349 349 348 347 346 344 343 343 344 345 347 348 347 346 345 344 343 342 340 340 342 344 345 346 346 346 345 344 344 343 344 345 344 344 344 344 344 344 344 344 344 345 344 343 343 343 343 344 344 344 344 342 341 341
354 356 355 355 355 355 355 353 353 353 353 354 353 353 354 354 355 353 352 351 351 352 350 349 349 348 348 348 347 347 347 347 348 347 347 346 346 346 346 346 346 347 348 348 346 346 346 345 344 342 340 341 343 344 344 346 346 346 346 345 345 345 345 345 343 344 344 344 344 344 344 343 344 343 342 342 343 342 342 343 344 344 344 342 341
354 355 356 356 357 356 356 354 354 355 354 355 355 354 355 355 354 353 350 348 350 352 350 348 347 348 348 348 348 347 348 347 347 347 347 347 348 348 348 347 348 347 347 347 346 346 346 345 345 344 343 343 344 344 343 343 344 346 346 346 346 346 345 344 344 344 343 343 343 343 343 343 342 342 342 341 342 341 341 342 343 344 343 343 342
355 356 356 357 357 356 355 355 355 356 356 356 356 354 355 354 352 349 347 347 348 345 346 346 346 347 347 347 347 347 347 347 346 347 347 349 349 348 349 348 347 347 347 348 347 347 347 346 345 345 345 345 345 344 343 343 344 345 345 346 346 345 345 344 344 343 343 343 343 343 343 342 343 342 343 342 342 342 342 342 342 343 343 342 342
356 357 356 356 356 356 356 356 356 357 357 357 356 354 353 352 349 347 347 345 343 338 339 343 343 345 346 346 345 345 346 345 346 349 349 351 350 349 349 348 347 347 348 348 347 347 347 348 347 347 346 345 345 345 344 345 345 344 345 345 345 345 345 344 344 343 343 343 342 343 342 342 343 342 342 342 342 343 343 342 342 343 342 342 342
357 357 357 357 357 358 357 356 356 358 358 356 355 355 353 350 348 348 345 339 336 336 337 338 338 340 342 344 344 345 346 347 348 350 351 351 350 351 350 349 347 347 347 348 347 347 347 348 347 347 347 346 346 346 345 346 346 346 345 346 345 345 346 345 345 344 343 343 343 343 343 342 342 342 342 342 342 342 342 342 342 342 342 342 342
356 354 355 356 357 358 358 358 358 358 358 357 356 357 354 350 349 347 342 336 334 336 335 335 335 335 336 342 345 345 347 348 348 350 352 351 351 352 352 350 349 347 346 346 347 347 347 347 347 348 348 348 347 347 347 347 348 347 347 347 347 346 346 346 346 345 345 344 344 344 343 342 342 342 343 343 343 343 342 343 342 342 342 343 343
353 349 352 356 357 357 357 357 358 358 357 358 357 357 354 349 349 347 341 337 335 334 334 335 337 334 334 341 345 345 346 346 347 350 351 352 352 352 352 351 350 349 347 345 346 346 346 347 347 347 348 347 347 347 348 349 348 348 347 348 347 347 347 346 346 346 346 346 345 345 345 344 344 344 344 344 345 344 345 344 343 344 344 344 343
349 347 350 357 359 357 356 356 358 358 356 358 357 356 354 350 348 346 342 337 334 335 335 337 339 337 337 341 345 346 346 346 346 349 351 352 352 352 352 352 351 351 349 348 346 345 345 347 346 346 346 347 347 347 347 347 347 347 347 347 347 347 347 346 346 345 345 345 345 345 345 345 345 345 345 345 345 345 345 345 345 345 345 345 344
348 346 346 356 359 356 356 355 357 358 356 358 358 356 355 352 349 344 340 336 334 337 338 339 341 341 341 340 341 344 346 347 346 347 350 351 351 352 353 352 351 351 351 350 348 346 344 344 345 345 345 345 346 347 347 346 347 348 346 346 347 346 346 346 346 346 345 345 345 345 345 345 346 345 345 345 345 345 345 345 345 345 345 345 344
348 347 344 350 357 357 356 355 357 357 356 357 357 357 355 354 351 344 338 336 333 335 336 339 342 341 341 339 339 341 343 346 347 347 349 351 351 351 351 352 351 351 351 351 351 348 345 344 344 345 345 344 344 346 347 346 346 347 346 346 346 345 346 346 346 346 345 345 345 344 344 344 344 344 344 344 344 344 344 344 345 344 344 344 344
349 349 345 346 355 357 355 356 356 356 357 357 356 356 355 353 351 346 344 341 337 336 334 337 341 340 342 341 341 341 341 343 346 347 348 349 350 349 350 351 351 350 350 351 352 351 349 348 348 347 345 343 344 345 346 346 346 346 346 346 345 345 346 346 346 346 345 344 344 343 342 343 343 342 342 343 344 344 344 343 344 343 344 344 343
350 349 345 345 352 356 356 356 356 356 358 358 356 355 353 352 349 347 348 344 339 337 333 337 342 340 341 343 343 343 341 342 344 345 346 348 348 348 349 350 349 349 350 352 351 351 350 348 349 348 344 342 343 343 343 344 344 344 345 346 346 345 346 346 345 343 341 339 337 335 334 334 335 334 334 335 337 339 340 342 343 343 343 343 343
352 350 347 344 348 354 355 356 357 357 359 359 357 355 354 353 348 345 346 343 338 336 334 338 344 342 342 348 348 344 343 342 342 344 345 347 348 347 348 348 348 348 348 350 350 349 349 348 348 348 346 344 342 341 341 341 340 342 344 344 345 346 346 345 339 330 326 323 322 321 320 320 320 319 320 321 323 325 329 333 336 337 338 337 337
354 352 350 346 345 349 354 357 357 358 359 359 357 356 356 353 350 349 343 341 341 337 335 340 344 344 347 354 352 348 353 348 341 345 346 345 346 347 347 347 347 347 346 347 347 347 346 345 346 347 347 346 345 344 341 336 335 339 342 342 344 342 338 331 323 317 317 316 316 317 316 316 316 315 316 316 316 317 319 321 323 324 325 325 324
355 354 353 350 347 347 353 357 357 358 360 359 358 357 356 353 351 352 344 342 344 336 334 341 344 345 349 354 353 354 358 350 342 344 343 345 346 346 346 346 345 346 346 346 345 345 344 343 343 343 343 343 343 339 331 326 327 332 338 341 339 331 321 317 316 317 318 318 318 318 317 317 317 316 316 316 316 317 317 316 317 317 318 318 317
356 356 355 352 351 351 354 358 359 359 360 359 358 357 357 353 351 352 345 343 344 335 336 345 346 345 346 349 351 353 353 350 349 349 342 342 344 344 344 342 340 342 344 345 345 344 342 342 342 340 340 339 338 333 323 318 320 322 327 331 327 319 317 318 318 319 318 318 319 319 319 317 317 316 316 317 316 316 317 317 317 317 316 316 316
356 358 357 355 355 354 355 359 359 359 360 359 359 357 356 354 350 350 345 343 344 336 337 344 344 344 346 345 347 347 346 347 352 354 349 344 340 341 341 340 340 339 340 341 342 341 340 341 341 341 340 338 338 336 328 322 320 319 319 320 319 318 319 319 320 320 321 323 322 322 321 319 318 317 316 317 317 317 317 317 317 317 317 317 317
356 359 359 357 358 357 356 359 359 360 360 359 359 357 356 355 351 349 346 344 343 340 339 340 339 341 344 345 345 345 343 344 346 350 354 354 347 342 341 341 340 338 338 339 339 338 338 340 342 342 341 339 339 338 332 327 323 321 319 319 320 321 322 323 324 325 325 326 326 326 324 321 319 318 318 319 320 322 322 323 322 322 322 322 322
356 358 359 358 359 358 356 359 360 360 361 359 359 358 356 355 352 349 347 345 344 344 344 341 338 338 341 344 345 343 344 345 344 344 349 356 356 347 340 341 340 338 338 338 338 338 338 340 341 342 340 339 337 335 334 332 326 323 323 324 325 325 326 327 326 326 327 327 327 327 326 324 322 321 322 323 325 326 327 327 328 328 328 328 328
357 358 359 358 358 359 358 358 360 360 361 360 360 359 356 355 353 348 346 345 343 343 345 344 341 342 342 342 344 343 341 343 344 345 344 348 353 349 341 340 341 340 339 338 338 338 338 340 340 338 337 336 335 334 335 335 329 326 327 327 327 328 328 328 328 328 328 327 327 327 327 326 325 325 324 325 326 327 327 328 328 329 329 330 330
357 357 359 359 358 359 359 359 360 360 361 361 360 359 357 355 353 348 346 346 343 337 340 345 346 346 342 339 342 343 342 341 342 345 344 343 348 350 344 340 339 339 339 339 339 338 338 338 337 336 336 334 334 335 336 336 334 332 331 329 330 329 329 329 329 329 329 329 329 328 328 327 327 326 326 326 326 326 327 327 327 327 328 328 329
357 357 357 357 358 359 360 359 360 360 361 361 360 359 357 356 354 351 349 349 345 336 336 344 347 346 344 340 341 342 343 343 342 343 344 343 346 348 345 343 342 338 339 340 339 337 337 337 336 336 337 335 335 336 336 337 336 335 335 334 334 333 331 330 329 329 329 329 329 329 329 329 328 328 328 328 328 328 328 328 328 328 328 328 328
358 357 356 358 358 359 360 360 360 360 361 362 361 359 359 357 355 354 352 350 348 340 334 343 348 346 345 345 343 341 342 343 341 342 343 342 344 346 344 345 344 340 339 339 339 338 337 337 337 336 336 336 337 337 336 336 337 337 337 336 336 336 334 331 329 329 329 329 329 329 329 330 329 330 329 329 329 329 330 329 330 330 330 329 329
358 356 356 358 358 359 360 360 360 361 362 361 360 360 360 358 357 356 354 351 351 345 337 338 345 346 347 348 345 340 340 343 341 341 342 341 343 343 343 344 343 340 339 339 338 337 337 338 337 335 336 336 337 337 336 336 336 337 337 338 337 337 336 333 331 331 332 332 331 329 329 329 330 329 330 330 330 330 330 330 331 331 331 331 331
357 356 356 357 359 359 359 360 361 362 363 361 361 360 360 360 358 357 357 353 351 349 343 338 339 345 348 349 347 343 342 343 342 342 342 341 342 340 342 345 347 344 341 340 340 338 338 338 337 336 336 337 337 337 337 337 337 337 338 338 338 337 337 335 334 334 335 335 334 332 330 329 329 329 330 330 330 331 330 331 331 330 331 331 331
356 356 357 358 359 360 360 361 361 361 362 362 361 361 360 360 359 358 357 356 353 350 348 344 339 341 346 348 348 346 345 344 344 343 342 341 341 339 339 342 348 352 349 345 342 340 338 338 338 337 337 337 338 337 337 337 337 338 338 338 339 338 337 336 336 336 336 336 335 334 333 331 330 329 329 330 330 330 330 330 330 330 331 331 331
357 357 359 359 359 360 360 361 360 361 362 362 361 361 361 360 360 359 357 356 355 352 350 349 345 340 341 345 347 347 347 346 346 345 343 341 338 338 339 339 343 354 356 352 348 342 338 339 338 337 337 337 337 337 337 338 338 338 338 338 339 338 337 337 336 336 336 337 336 335 334 332 330 330 329 329 329 330 329 330 330 330 330 330 330
357 358 359 360 360 360 361 360 360 360 361 361 361 361 361 361 360 360 358 356 356 355 352 350 349 345 341 342 345 346 347 348 348 348 345 343 339 335 339 340 340 346 350 354 354 345 339 341 339 337 336 336 338 338 338 339 339 339 339 339 339 338 338 337 337 338 337 337 336 335 335 334 331 329 329 329 329 329 329 330 330 330 330 329 328
356 358 359 360 360 360 360 360 360 360 360 360 361 361 361 362 361 360 358 356 356 356 354 351 350 349 346 344 344 344 345 347 348 348 347 345 342 337 337 339 340 341 342 347 352 346 341 341 340 338 336 336 337 338 338 339 338 339 339 339 339 339 338 338 340 339 338 337 336 336 336 334 331 328 326 326 328 328 328 329 329 328 328 327 327
358 358 358 359 360 360 360 360 360 360 360 361 361 361 361 361 361 360 359 358 357 356 356 354 351 350 348 347 345 344 344 345 347 348 347 346 344 341 339 339 339 341 341 342 345 345 342 342 341 339 338 337 337 338 339 339 339 338 339 339 339 339 338 339 340 339 337 337 337 336 334 332 330 328 327 327 327 326 327 327 327 327 327 328 328
359 360 360 359 360 360 360 360 361 360 361 361 361 361 361 361 362 362 360 358 357 357 356 356 353 352 351 349 347 346 345 345 345 345 346 346 346 344 342 341 339 340 340 341 343 342 342 342 342 340 338 338 338 338 339 340 340 339 338 339 340 339 338 338 337 336 336 336 336 335 335 335 334 333 333 332 331 329 329 328 328 329 330 331 332
360 361 361 360 359 360 360 361 361 361 361 362 362 362 362 362 362 362 362 360 358 357 357 357 355 353 352 350 349 347 346 347 346 344 345 346 347 346 344 343 342 341 341 340 341 342 342 342 342 342 340 340 340 339 339 340 340 340 339 339 340 339 338 338 336 335 334 334 336 338 338 338 337 335 335 335 334 333 332 332 332 332 333 332 333
361 360 361 361 360 360 360 360 361 362 362 362 363 364 363 363 363 362 362 362 360 359 358 358 357 354 352 352 351 349 347 347 347 346 345 345 346 346 346 344 343 341 341 341 340 341 342 342 341 342 342 341 341 341 340 339 340 340 340 340 340 340 340 340 339 337 335 335 338 339 340 339 338 336 336 335 334 334 333 333 333 333 333 333 333
361 361 359 359 359 361 361 359 360 361 363 362 363 364 364 363 363 362 362 362 361 360 359 358 358 355 353 352 352 351 350 347 347 347 347 346 346 347 346 345 344 343 342 341 341 341 341 342 341 341 342 341 341 341 341 339 339 339 340 341 341 341 341 341 341 339 339 339 339 339 339 338 337 336 336 335 335 334 333 333 334 333 333 333 332
360 360 360 358 358 360 361 361 360 361 361 362 363 363 364 364 363 363 362 362 361 361 360 359 358 356 355 353 352 352 351 349 347 347 348 348 346 346 346 346 345 344 343 341 342 341 341 342 342 340 341 342 341 340 340 339 339 338 339 340 340 342 342 342 341 341 341 341 340 340 339 338 338 337 336 336 336 335 335 335 335 334 333 333 332
359 359 360 359 357 357 359 360 361 360 360 361 362 362 362 363 363 362 362 362 361 361 360 360 359 358 357 355 353 353 352 351 349 347 347 348 347 346 346 346 346 345 344 342 342 342 342 342 342 341 341 342 342 342 340 339 339 339 339 340 340 341 342 342 343 342 340 340 340 340 339 338 339 338 337 337 336 335 335 336 335 334 334 333 332
358 359 359 359 359 357 357 358 360 361 361 361 361 362 362 362 362 362 362 362 361 361 361 360 359 359 358 357 355 354 353 352 351 349 348 347 348 347 346 346 347 346 345 343 342 343 343 343 343 342 342 342 343 344 343 341 339 339 340 340 341 341 340 341 341 341 340 338 339 340 339 338 338 338 336 336 336 336 336 336 336 335 334 333 333
357 358 359 359 359 358 358 356 357 360 361 362 361 362 362 362 362 362 362 362 362 361 361 360 360 360 359 358 357 356 354 353 352 351 349 348 348 348 347 346 346 346 345 344 343 344 345 344 344 343 343 343 343 344 344 342 340 339 339 339 340 340 341 341 340 340 340 339 339 340 340 339 338 337 337 336 336 336 336 336 336 336 335 334 334
357 357 358 359 359 359 359 358 357 358 360 362 362 361 362 362 361 362 361 361 362 361 362 360 360 360 360 359 358 357 355 354 354 352 351 349 348 347 347 346 345 346 346 344 344 345 346 345 344 343 343 343 344 344 345 344 342 341 340 339 340 340 341 341 341 341 341 340 340 340 340 340 340 337 337 337 337 337 337 338 337 336 334 334 334
357 356 356 357 359 359 359 360 360 359 359 360 361 361 361 360 361 361 361 361 361 361 361 361 361 360 360 360 359 358 357 356 355 354 352 351 349 347 347 345 345 345 346 345 344 344 345 346 345 344 344 343 343 343 344 344 343 343 342 341 341 341 342 343 343 342 342 341 342 341 341 341 341 339 337 337 337 337 337 337 336 335 334 334 334
358 357 356 356 357 359 359 359 360 361 361 360 360 361 361 361 361 361 361 361 362 361 361 361 361 360 360 360 359 359 358 358 356 356 354 353 352 350 348 347 345 344 345 345 345 345 345 345 345 345 345 344 344 343 342 343 344 344 343 342 342 342 342 344 344 344 343 342 343 343 342 343 342 340 338 338 337 338 337 336 336 336 334 334 333
358 358 358 358 357 358 360 360 360 361 361 362 361 361 361 360 361 361 361 361 361 362 362 362 361 361 360 360 360 359 359 358 358 357 356 355 354 352 351 349 347 345 344 344 344 344 344 344 345 345 345 345 344 344 343 342 343 343 344 343 343 342 342 343 343 343 343 343 344 345 344 343 343 342 341 339 338 338 337 336 335 334 333 333 332
357 359 360 360 359 359 361 361 361 361 361 361 361 361 361 361 360 361 359 360 361 362 362 362 362 362 361 361 361 361 360 359 358 358 357 356 355 354 353 352 349 348 346 344 343 343 343 344 344 344 345 345 345 344 343 343 342 343 344 344 343 343 343 343 342 342 343 343 345 345 344 343 343 343 342 340 338 338 336 335 334 332 332 333 332
358 360 361 362 362 361 360 362 362 362 361 361 361 362 361 360 361 360 360 360 360 360 361 361 362 362 361 361 361 361 360 360 359 359 358 357 357 355 354 352 352 350 348 347 345 344 343 344 344 343 343 343 343 343 342 342 342 342 343 344 344 343 343 343 342 342 343 343 343 343 343 342 341 341 340 338 337 337 336 334 333 332 333 333 332
358 359 361 362 364 362 362 362 362 363 363 362 362 361 362 362 361 361 361 360 359 360 360 360 360 361 360 360 360 360 360 359 359 360 359 358 357 356 354 353 352 350 349 349 347 346 345 344 343 343 343 342 342 342 342 341 342 341 342 343 343 344 344 344 344 344 344 343 343 342 342 341 340 340 339 338 338 336 334 334 333 332 332 332 329
359 359 359 361 362 363 363 362 361 362 363 363 363 362 362 362 362 363 362 361 360 360 359 359 359 359 360 360 359 359 358 358 358 359 359 359 358 357 355 353 352 351 350 350 350 349 347 346 345 344 343 343 343 342 342 341 341 341 342 342 343 344 344 345 345 344 344 344 343 342 342 341 340 339 339 338 337 335 334 334 332 330 329 328 325
359 359 359 359 360 361 363 363 362 361 362 362 363 364 363 363 364 365 363 362 361 361 360 360 359 359 359 360 359 359 358 358 357 358 358 358 358 357 356 354 352 351 351 350 351 350 349 348 346 345 344 344 343 343 343 341 341 341 343 343 344 344 345 345 344 344 344 343 343 342 342 341 340 340 339 337 335 334 334 333 330 328 327 325 325
359 359 360 360 359 359 361 362 363 363 362 361 362 364 365 365 366 366 364 363 362 361 361 361 361 361 360 360 360 361 359 359 358 358 357 358 358 358 356 355 354 352 352 351 350 350 350 348 347 346 345 344 344 344 343 343 342 342 343 344 343 344 345 344 343 343 343 343 343 342 342 341 340 340 339 336 334 334 334 332 329 328 327 325 325
360 359 359 360 360 360 360 361 362 363 363 363 362 363 365 366 367 367 366 364 363 362 363 363 362 362 362 361 361 362 362 362 361 360 358 358 357 357 357 356 355 354 353 352 351 351 350 349 347 346 346 345 345 345 344 344 343 342 343 343 343 344 345 344 343 343 343 343 342 342 341 341 341 340 338 335 334 334 333 331 329 328 326 325 325
Wind_Speed
10 9 7 6 6 5 4 2 2 2 3 5 4 4 4 4 4 5 5 6 10 12 12 11 11 11 11 11 12 14 16 15 12 10 10 10 10 11 11 11 11 11 10 10 9 9 9 9 9 9 9 9 9 9 9 9 8 8 8 7 6 6 5 4 4 4 3 4 4 5 4 4 3 3 2 2 1 1 1 1 1 1 1 2 4
11 10 8 7 7 6 4 3 3 3 3 5 4 3 3 3 4 4 5 7 11 12 12 15 15 12 10 11 13 16 16 14 12 12 12 12 11 11 10 10 11 11 11 10 10 10 10 9 9 9 9 9 9 8 8 9 8 8 8 7 7 6 6 5 5 5 4 4 5 5 5 4 4 3 3 3 3 3 2 2 2 1 1 2 2
11 12 10 7 8 6 5 4 4 5 4 5 5 3 4 4 2 1 3 6 8 7 10 14 15 15 12 12 16 16 16 14 13 13 13 12 11 11 11 11 11 11 11 11 11 11 10 10 10 9 9 9 9 8 8 8 8 8 8 8 7 7 6 6 6 5 5 5 5 5 5 4 4 4 4 4 4 3 3 2 3 3 2 2 2
12 13 10 8 8 6 5 3 4 5 5 6 5 4 5 4 2 3 3 3 4 4 9 11 11 15 15 14 17 16 16 15 12 12 13 13 12 12 12 12 11 11 11 11 11 11 11 11 10 10 10 9 9 8 8 8 7 8 8 8 7 7 7 7 7 6 6 6 6 6 6 5 5 5 5 4 4 4 3 3 3 4 3 3 3
12 11 8 8 6 5 4 4 3 4 5 6 3 3 4 4 5 5 3 1 1 1 8 13 12 15 16 14 17 16 16 13 10 12 13 14 14 14 13 13 13 12 11 11 11 11 11 11 11 11 10 10 9 9 8 8 8 8 8 7 7 7 7 6 7 7 7 7 7 6 6 6 6 6 5 5 5 5 5 4 4 4 5 4 5
12 11 7 7 6 4 4 4 5 4 4 4 3 3 5 5 5 4 2 3 3 3 8 12 12 15 17 17 17 16 16 13 10 13 14 15 15 15 14 13 13 13 12 12 11 11 10 10 11 11 11 10 10 9 9 8 8 8 7 7 7 7 7 7 7 7 7 7 7 7 7 7 6 6 6 6 6 6 6 6 5 6 6 6 6
13 12 9 7 5 5 4 4 5 5 3 2 4 4 5 5 4 2 2 3 1 2 7 8 9 14 16 19 20 17 18 17 14 15 16 16 16 15 14 13 13 13 13 13 11 11 11 11 11 11 10 10 10 10 9 9 8 8 8 8 7 7 7 7 7 7 7 8 8 8 8 8 7 7 7 7 7 7 7 7 7 7 7 7 7
12 12 11 8 5 6 5 5 5 5 4 3 5 4 5 5 3 3 3 3 4 3 6 7 7 11 15 18 22 21 20 19 16 17 18 16 15 15 14 13 13 12 12 12 12 11 10 10 10 10 10 10 10 10 9 9 8 8 8 8 8 7 7 7 7 7 7 8 8 9 9 8 8 8 8 8 8 8 9 8 9 9 8 8 8
13 11 12 10 6 5 5 6 6 5 5 5 5 5 6 6 4 2 4 7 8 6 6 5 7 9 14 19 22 22 20 17 16 18 18 16 14 14 13 12 12 11 11 11 11 10 10 10 9 10 10 10 10 9 9 8 8 8 8 8 8 7 7 7 7 7 7 7 7 8 8 8 8 8 8 9 9 9 9 9 9 9 9 9 8
15 12 12 11 7 6 5 8 8 5 5 6 5 5 7 7 4 3 4 6 7 8 6 6 10 13 13 17 20 20 18 17 18 18 18 17 14 13 12 12 12 11 11 10 9 9 10 10 9 9 9 9 10 10 9 9 9 9 9 8 8 7 7 7 6 6 6 5 5 6 7 7 8 8 8 8 8 8 8 8 8 8 8 7 8
15 14 13 12 9 7 6 7 6 4 5 6 5 6 8 7 4 4 4 4 5 8 9 11 13 13 11 11 13 15 17 19 17 15 17 17 15 14 12 12 11 10 10 9 9 8 9 9 9 9 8 8 9 9 9 9 9 8 9 8 8 7 7 6 5 5 4 4 3 3 5 6 7 7 6 7 7 7 8 8 7 7 6 7 7
15 15 13 13 11 8 7 7 6 4 4 5 5 7 8 8 6 6 6 5 5 7 8 11 12 11 10 10 9 9 14 18 16 14 16 17 16 15 13 12 11 10 11 10 9 8 8 9 9 8 8 8 8 8 9 9 8 8 8 8 7 8 7 5 5 5 4 4 3 3 4 5 5 5 5 5 6 6 7 7 6 6 6 6 5
14 15 14 13 13 10 8 8 7 6 5 4 5 8 9 8 8 7 6 4 5 6 5 7 9 9 9 9 9 7 10 15 17 15 15 15 15 14 13 12 11 11 11 11 9 8 9 9 9 8 7 8 8 7 7 7 7 7 7 7 7 7 6 5 5 5 4 4 3 3 2 2 2 2 3 3 3 4 4 4 5 4 4 4 4
14 15 14 14 14 12 10 9 9 8 6 4 6 9 10 8 7 8 6 4 6 6 5 5 5 6 9 7 6 4 5 9 13 14 14 15 13 12 12 12 11 11 12 13 11 9 9 9 8 8 8 8 7 7 7 6 6 6 6 6 6 6 5 5 5 4 3 2 2 2 2 2 1 1 1 1 1 1 1 2 2 2 2 2 3
14 15 15 14 15 14 12 11 10 9 7 7 8 9 10 8 6 7 6 6 7 7 6 5 2 3 6 5 2 2 1 2 6 12 16 14 12 12 12 11 12 12 13 13 12 10 10 8 8 8 8 8 8 7 7 6 5 6 6 6 6 6 5 5 4 4 4 3 3 3 3 3 3 3 3 2 2 1 1 1 0 0 0 1 1
14 15 16 15 15 15 14 12 11 10 8 9 9 9 10 10 7 6 6 6 6 8 7 5 4 4 4 2 2 3 1 3 3 12 17 12 11 14 13 12 12 14 14 13 12 11 10 8 8 8 8 8 8 7 7 6 6 6 6 6 6 6 5 5 5 5 4 4 4 3 3 3 3 4 3 3 3 3 2 2 2 1 1 1 1
14 15 16 16 15 14 14 12 12 11 10 10 11 11 9 11 10 8 7 5 4 8 8 5 4 5 3 3 3 2 2 4 2 7 11 11 14 17 16 13 12 14 16 13 13 13 10 9 9 9 8 9 8 7 6 5 6 6 7 6 5 5 5 4 4 3 3 2 2 2 3 3 3 3 3 3 4 4 4 4 4 4 3 3 4
15 16 16 17 16 15 15 13 12 12 11 11 11 12 10 10 10 8 9 6 6 9 9 7 6 4 5 4 3 1 3 5 3 2 4 9 15 18 17 14 10 14 17 16 16 13 9 9 9 9 9 8 7 5 4 4 4 4 5 5 5 4 4 3 3 2 1 1 1 1 1 2 3 3 3 4 4 4 5 5 5 5 5 5 5
17 16 16 17 17 16 15 15 14 12 12 11 11 13 11 10 10 8 9 7 8 11 10 9 7 5 5 3 3 5 6 4 3 2 3 6 10 14 16 13 10 14 17 17 17 12 10 10 10 10 10 9 8 6 5 4 4 4 4 5 4 4 3 3 3 2 1 1 0 0 1 1 2 3 3 3 4 4 4 4 4 4 4 4 4
19 18 17 18 18 17 17 16 15 14 13 13 12 13 12 12 11 9 11 9 10 12 10 9 9 7 8 5 3 7 7 6 4 4 4 3 3 7 13 14 12 14 16 16 15 12 12 13 13 12 11 10 9 7 5 4 5 5 4 4 4 4 3 3 2 1 1 1 1 0 0 0 1 1 2 2 2 3 3 3 3 3 3 3 4
21 20 19 19 19 18 18 18 17 15 15 14 13 13 13 13 13 13 13 11 11 13 10 9 9 7 10 8 4 6 7 7 5 4 5 3 2 2 7 11 11 13 17 17 15 15 14 15 15 14 13 11 9 7 5 4 5 6 5 5 5 4 4 2 2 1 1 1 2 1 1 1 0 0 0 1 1 1 2 2 2 3 3 4 5
22 22 20 21 21 20 19 19 19 17 16 15 15 15 15 14 13 15 14 11 11 14 12 10 7 5 10 11 8 8 7 5 5 5 4 3 3 3 5 7 9 12 18 19 18 18 16 16 17 14 13 12 10 9 7 4 5 5 5 5 5 4 3 3 2 1 1 0 1 1 1 1 1 1 1 1 2 2 2 2 3 3 4 4 5
23 23 22 22 22 22 20 20 20 19 18 17 16 17 17 15 14 15 14 11 11 14 15 12 6 4 9 12 10 10 8 6 7 8 6 4 3 3 5 6 8 13 19 21 19 18 18 18 17 14 14 14 11 10 10 7 6 6 5 5 4 4 4 4 4 3 3 2 1 1 1 1 1 1 2 2 2 2 3 3 4 4 5 5 6
26 24 25 25 24 23 22 21 21 22 20 19 17 17 17 17 16 15 14 12 11 12 16 15 8 5 10 11 9 11 11 9 10 10 9 8 6 5 5 4 5 10 18 22 20 17 17 18 18 14 14 15 12 11 12 11 9 8 7 6 5 6 6 6 6 5 5 4 4 3 3 3 2 2 3 3 3 3 4 4 5 5 6 6 7
29 28 27 27 26 26 25 23 22 23 22 21 18 17 18 18 18 17 16 14 12 12 16 18 12 8 10 9 8 12 13 11 11 11 10 9 8 7 4 2 2 7 15 20 19 16 16 16 16 15 15 16 13 12 14 13 12 10 8 8 8 8 8 8 8 7 7 7 7 7 6 6 5 5 5 5 5 5 6 6 6 7 7 8 8
32 30 28 28 28 27 27 25 23 23 23 22 21 19 19 19 19 19 18 16 14 13 14 17 16 12 11 10 9 11 13 11 12 11 10 9 9 9 4 1 2 6 10 14 15 16 16 15 13 14 17 18 14 13 14 14 13 11 9 9 10 11 11 10 9 9 8 9 9 9 9 9 9 8 8 8 8 8 8 8 8 9 9 10 10
32 31 29 28 28 28 28 27 25 24 24 23 22 21 20 19 20 20 19 18 16 15 14 16 17 16 14 13 12 11 13 12 12 12 11 10 10 11 8 2 1 3 4 7 10 13 15 14 12 13 16 18 16 14 15 15 14 11 10 10 12 13 12 11 10 10 9 9 10 10 11 11 12 12 11 11 10 10 10 10 10 11 11 12 12
31 31 29 28 28 29 28 27 26 25 25 24 24 23 23 21 21 22 20 19 19 17 16 16 17 18 18 16 16 15 14 13 13 12 12 12 11 12 12 9 5 1 2 4 6 10 14 13 12 14 17 18 17 16 17 17 14 12 12 12 13 13 13 12 11 12 11 11 11 10 11 12 13 14 14 14 13 12 12 12 12 13 13 13 14
31 31 30 28 27 28 29 29 27 27 26 25 25 25 25 24 23 23 22 21 20 19 19 18 17 19 19 19 18 18 17 15 14 13 13 13 13 12 12 14 11 5 2 3 5 9 13 14 14 15 17 19 19 18 19 18 15 13 13 13 13 13 13 12 12 12 12 12 12 11 11 12 13 14 15 15 15 14 14 14 14 14 14 14 14
31 30 29 28 28 28 30 30 29 29 28 27 26 26 26 26 24 24 23 22 22 21 20 20 19 18 19 20 20 20 20 18 15 14 14 14 15 14 12 13 14 12 8 5 4 9 14 15 15 15 17 21 22 20 19 18 15 14 14 14 14 14 13 12 12 12 13 14 13 12 12 12 12 13 14 15 15 15 15 15 15 15 15 15 15
32 31 30 29 29 29 30 31 30 30 29 29 28 27 27 27 27 26 25 24 25 24 23 22 21 20 20 21 21 22 22 21 18 15 15 15 15 15 14 13 12 14 13 8 3 7 11 12 14 16 17 21 24 21 19 18 16 15 16 15 16 15 13 13 12 12 13 14 14 14 14 14 14 13 13 13 14 14 15 15 16 15 15 15 15
31 32 31 31 31 31 32 32 31 31 30 30 30 29 29 28 28 28 27 26 27 26 25 24 23 23 22 22 23 23 22 22 22 19 17 16 16 15 15 15 14 13 14 12 7 9 12 10 10 14 17 21 25 23 20 18 17 17 18 17 17 16 15 15 15 14 14 14 14 14 14 13 13 12 12 12 12 13 14 15 15 15 15 15 15
32 32 33 33 33 33 33 33 33 32 32 31 31 31 31 30 30 30 29 29 29 28 27 27 26 26 25 24 24 24 23 23 24 23 20 18 18 17 17 17 18 16 15 15 13 12 15 13 8 9 14 19 24 24 21 19 18 18 18 17 17 17 17 18 18 18 17 16 15 14 13 12 12 11 11 11 11 12 12 13 14 14 14 14 15
34 33 33 34 34 34 34 33 33 33 33 33 32 32 32 32 31 31 30 30 31 30 28 28 29 29 27 26 25 25 24 24 24 24 23 21 20 20 20 20 20 20 19 19 17 14 16 19 14 9 13 19 21 22 21 19 18 19 19 19 18 18 18 18 18 19 19 17 14 13 14 15 14 13 12 11 11 11 11 12 12 13 13 14 15
35 35 34 33 34 35 36 34 34 34 34 34 33 33 33 33 33 32 31 31 31 32 31 30 30 30 29 28 27 27 26 26 26 25 25 25 23 22 23 23 23 22 22 21 21 19 18 21 20 16 16 19 19 20 20 19 19 20 21 20 19 18 17 16 17 17 16 14 13 13 15 16 16 14 13 12 11 11 11 11 11 12 12 13 13
35 36 36 34 34 34 36 36 35 35 35 35 35 34 34 34 34 34 33 32 32 32 33 32 31 31 31 30 30 29 28 29 29 28 28 28 27 25 25 25 25 25 25 24 24 24 21 21 23 22 20 19 19 19 19 19 20 21 21 21 20 19 18 17 15 14 12 12 13 14 15 15 16 15 13 12 12 11 11 11 11 11 11 11 11
35 36 36 36 35 35 36 37 37 37 36 36 36 36 36 36 36 35 34 33 33 32 33 33 33 32 32 32 32 31 30 31 31 31 31 31 31 29 28 28 28 28 28 27 27 27 25 24 24 24 22 21 22 21 20 20 21 21 21 21 20 20 19 18 17 15 14 13 14 15 15 15 15 15 14 13 13 12 12 11 11 11 10 9 9
36 36 36 37 37 37 37 37 38 39 38 37 37 37 37 37 36 36 35 35 34 34 33 34 34 34 34 34 33 32 32 33 33 33 33 33 33 33 32 31 31 31 31 31 30 29 29 28 27 25 24 23 24 24 23 23 23 23 23 22 22 21 20 20 20 19 18 18 17 16 16 16 16 16 15 15 14 13 13 12 12 10 9 8 8
37 36 36 37 38 39 40 39 38 39 39 38 38 38 38 37 37 37 36 36 35 35 35 35 35 36 36 36 35 35 35 35 36 36 35 35 35 35 36 34 33 33 33 33 32 31 31 30 28 27 27 26 25 25 24 24 24 25 25 25 25 25 24 24 25 24 22 22 20 18 18 17 17 17 16 15 14 14 14 14 12 10 9 9 9
38 37 36 38 39 39 40 40 40 39 38 39 38 38 38 38 37 38 37 37 36 36 36 36 36 36 37 37 37 38 38 38 39 38 38 37 37 37 38 37 35 34 35 34 32 32 31 30 29 29 28 27 26 24 23 24 26 28 29 29 28 28 28 27 27 26 24 23 22 21 20 18 18 18 17 16 16 16 15 14 13 11 10 10 11
40 39 37 37 38 39 39 39 40 39 38 39 39 40 39 39 38 39 39 38 37 37 36 36 36 36 37 38 39 40 40 41 41 41 40 40 39 39 40 40 38 36 35 34 32 31 30 28 28 27 26 27 27 26 24 27 30 31 31 30 29 29 28 27 28 27 24 23 23 24 23 21 19 19 18 18 17 16 15 14 14 13 12 12 13
40 40 39 37 37 38 38 38 39 39 39 40 41 42 42 41 40 39 38 39 39 38 37 37 37 37 38 39 39 40 41 42 42 42 43 42 42 42 41 41 41 38 35 33 32 32 30 27 27 27 25 26 29 30 29 31 32 31 30 29 30 28 25 23 24 26 25 23 22 25 25 23 21 19 19 18 17 16 16 16 16 14 13 13 13
39 39 39 39 37 37 38 39 39 39 40 41 42 43 44 44 43 40 39 39 39 39 38 37 37 38 38 39 39 39 40 42 43 44 44 44 44 44 43 42 42 41 39 36 34 34 32 29 29 28 27 28 31 33 33 33 32 32 31 31 30 27 23 20 19 21 24 24 23 25 26 24 22 21 20 19 18 18 18 18 17 15 14 14 15
38 38 39 40 39 37 38 40 40 40 41 42 43 44 45 45 44 42 40 39 38 39 39 38 38 38 37 38 38 38 39 40 42 44 45 46 46 46 46 45 45 44 43 42 40 38 36 34 31 31 32 32 32 34 35 34 34 34 33 32 31 30 27 24 21 21 23 23 24 25 26 25 23 24 24 23 22 21 20 18 17 16 15 15 16
39 38 39 39 39 38 37 38 40 42 42 43 44 44 45 46 46 45 42 40 38 39 39 39 39 38 37 37 37 38 38 39 41 43 45 47 48 48 48 48 48 48 47 47 46 44 43 40 37 37 39 37 34 37 39 38 36 34 32 31 32 31 29 28 29 28 23 21 23 25 25 24 23 24 25 24 22 20 18 17 17 15 16 17 17
38 38 38 38 39 40 39 38 40 42 42 43 44 45 46 46 46 46 45 42 39 38 39 39 39 39 38 38 38 38 38 39 41 42 43 45 47 49 50 51 51 50 49 50 51 49 47 45 43 43 44 42 41 42 41 39 37 36 34 33 33 33 32 32 33 31 26 23 23 22 21 22 21 21 22 22 20 19 17 16 16 16 17 18 16
39 39 38 38 39 40 40 39 38 39 42 44 44 45 46 46 46 46 46 44 40 38 38 39 39 39 40 40 40 40 40 40 41 42 43 44 45 46 49 50 51 51 51 53 54 53 51 50 49 48 47 46 45 44 41 39 40 39 38 37 36 35 33 30 29 28 27 26 25 22 20 21 21 20 20 20 18 17 16 15 16 15 15 15 14
37 38 38 38 38 39 40 40 38 38 40 42 44 46 46 45 45 46 46 45 42 40 39 39 39 40 40 41 42 42 42 43 43 43 44 43 43 45 46 47 48 49 51 55 57 56 55 54 53 51 49 47 46 45 42 40 40 40 37 35 34 33 29 25 24 26 27 27 27 26 22 20 21 21 19 17 16 16 16 17 16 13 12 12 12
35 36 38 39 38 38 38 39 40 39 38 39 41 44 45 44 44 45 45 44 43 42 41 39 38 39 40 42 42 42 43 44 44 44 44 43 43 43 43 44 44 45 50 55 54 55 57 57 56 54 51 48 46 44 43 42 41 40 36 33 33 33 29 22 20 24 28 29 29 28 25 22 22 22 19 17 16 17 17 17 17 13 10 10 11
35 36 36 36 37 38 38 39 40 39 38 37 36 37 39 41 43 44 44 43 43 43 41 39 39 40 41 42 42 42 43 44 43 42 42 42 43 43 41 40 38 42 50 51 46 48 53 56 56 55 52 49 47 45 44 44 43 41 40 38 36 35 31 25 22 23 26 30 32 29 25 24 24 24 21 18 17 20 20 18 17 14 11 12 13
34 33 33 33 34 35 37 38 38 37 35 34 33 32 32 34 38 42 43 41 41 41 40 38 39 40 41 41 40 41 43 43 42 42 41 42 44 44 42 37 36 44 50 46 42 44 46 48 52 54 53 52 50 47 46 45 45 45 45 43 40 37 34 30 28 22 15 21 32 32 27 25 26 26 24 17 12 15 21 21 18 15 14 13 14
Wind_Direction
176 176 179 166 158 157 151 139 136 143 161 162 153 134 138 155 152 159 178 173 170 175 182 182 183 177 163 163 166 164 167 168 171 170 161 161 155 152 164 174 178 180 179 177 174 171 168 165 166 166 168 169 170 169 173 175 173 171 167 163 161 160 162 166 166 167 171 171 172 173 177 182 176 171 175 174 185 214 239 253 266 316 340 345 351
176 176 181 169 166 169 164 173 186 183 169 158 149 123 121 131 139 162 171 173 174 173 174 172 180 182 163 160 165 167 171 170 172 175 170 165 153 149 161 173 179 184 185 184 181 180 177 175 172 171 172 173 172 170 173 176 178 180 178 176 173 173 177 181 179 178 182 181 179 182 189 195 190 196 207 214 223 234 259 279 279 281 292 305 323
178 177 183 173 168 171 169 175 163 156 150 141 142 131 129 123 119 173 154 170 179 187 187 171 177 187 176 164 164 168 173 167 167 172 169 164 159 155 161 173 179 184 186 185 185 184 185 184 181 178 176 176 174 173 173 175 179 181 184 186 183 185 191 193 191 189 192 194 194 194 199 204 208 217 225 234 242 247 257 269 275 275 272 277 289
176 175 180 172 168 175 170 155 132 132 130 131 137 135 140 141 159 182 160 177 192 223 212 185 182 187 181 177 171 167 168 164 163 167 167 165 166 166 167 173 179 183 184 184 184 184 187 188 190 189 185 183 180 179 177 176 179 181 185 189 190 197 202 203 202 202 204 206 208 210 213 216 219 225 232 238 242 249 251 249 256 265 267 267 271
170 167 173 174 169 176 160 143 136 128 129 133 148 147 137 137 143 150 133 266 276 257 198 198 207 195 185 185 179 171 161 157 160 161 165 170 172 174 173 173 178 181 182 183 185 185 187 189 193 194 193 193 191 188 185 182 184 186 188 191 194 201 207 208 209 213 217 218 219 221 223 226 229 232 239 245 248 251 255 256 259 269 275 274 273
167 161 162 173 168 160 152 157 152 131 136 135 140 131 116 125 131 129 78 333 326 74 146 180 201 193 188 186 180 176 163 154 161 164 168 175 177 179 175 175 178 181 183 184 187 188 189 191 194 196 195 197 198 197 196 193 194 196 196 198 201 204 210 214 215 219 225 228 230 232 235 236 240 245 249 252 257 261 262 264 267 272 277 279 280
172 168 160 166 168 163 165 177 154 138 152 136 133 126 114 131 119 85 9 349 327 96 122 142 153 160 168 174 175 175 167 163 165 169 176 178 176 178 175 175 180 182 184 185 189 189 190 192 195 196 195 197 199 199 199 200 201 203 205 209 210 212 217 221 222 224 229 235 235 238 243 245 247 251 255 258 262 267 267 269 272 274 276 280 283
184 182 173 172 174 173 181 180 157 150 159 144 148 140 135 151 111 69 24 56 126 123 122 125 116 132 135 146 164 171 166 164 166 170 177 177 173 175 173 174 180 181 182 186 187 186 189 191 193 194 193 196 198 196 197 200 203 205 209 212 214 217 219 223 228 230 235 242 242 242 245 248 249 251 255 260 264 269 270 270 271 273 274 275 277
195 192 177 175 181 180 183 174 170 175 166 161 169 150 145 157 135 106 62 85 126 131 131 115 90 123 122 120 143 162 164 163 163 165 170 172 175 177 173 175 181 178 177 182 183 181 184 188 192 191 191 194 194 191 193 198 202 204 207 208 213 218 219 223 230 233 237 244 245 244 244 245 249 252 256 260 263 268 271 273 274 274 273 273 275
197 195 176 172 182 184 180 167 169 184 171 165 171 148 137 145 148 148 100 86 118 128 117 90 97 121 121 112 126 145 158 162 158 158 165 170 174 175 172 178 183 178 175 178 180 181 181 184 188 188 188 192 190 189 194 198 199 202 204 204 207 213 216 221 225 227 232 239 241 238 238 241 248 253 257 261 263 266 270 274 275 274 275 277 280
196 195 183 177 178 172 170 163 163 180 176 169 170 152 136 139 158 158 135 96 115 138 117 89 100 113 111 114 122 134 150 158 155 154 163 166 165 167 168 175 180 180 180 178 175 179 180 180 183 184 186 193 193 192 194 195 196 200 200 198 201 205 208 212 216 221 228 238 238 223 225 232 244 251 255 259 262 262 265 270 270 269 274 276 277
196 195 192 186 177 164 164 168 175 198 191 177 178 169 149 148 165 154 143 130 127 152 131 101 105 108 103 111 118 134 150 156 158 156 158 161 160 160 165 170 176 181 181 177 170 170 174 175 177 177 182 193 195 196 197 194 195 200 194 191 197 198 197 202 209 216 222 230 230 220 220 227 241 250 251 254 259 262 264 265 267 268 271 272 274
200 196 197 191 178 169 172 180 193 210 209 182 162 163 156 157 171 165 164 168 147 152 149 121 117 125 127 115 110 131 145 150 156 158 157 158 155 152 160 169 174 176 174 176 180 177 176 175 175 176 180 189 191 193 196 193 195 196 185 185 192 189 188 197 204 205 210 217 212 205 209 217 240 251 245 247 259 270 271 272 273 271 275 277 280
204 199 201 196 183 175 177 187 198 203 207 185 153 153 153 158 175 176 179 171 151 162 175 146 122 151 153 122 103 121 137 149 155 161 161 154 151 150 159 170 175 176 173 180 189 184 179 180 179 179 179 181 182 183 185 185 191 191 182 181 184 181 183 191 191 184 182 176 156 142 136 136 122 117 129 153 213 274 278 284 281 272 280 287 292
206 203 202 200 192 183 178 185 196 202 202 181 160 157 159 163 165 164 168 150 142 158 169 151 118 158 142 114 122 118 100 212 170 167 164 153 157 159 159 169 172 174 173 178 185 178 175 180 182 186 182 177 177 177 178 178 183 187 184 180 174 174 179 178 164 146 136 122 115 111 103 102 100 100 101 101 104 94 93 95 86 257 273 307 314
207 206 203 202 200 193 187 190 196 203 204 185 173 173 173 177 177 172 173 162 150 153 157 161 146 145 135 101 149 111 85 250 177 160 162 156 170 169 162 167 170 175 173 170 174 168 164 166 171 182 181 176 179 183 186 186 186 186 184 179 175 172 167 156 138 125 122 114 109 104 99 98 96 95 93 89 90 88 86 89 93 92 86 68 36
207 207 206 203 203 199 193 194 198 203 205 195 185 186 185 180 186 194 188 184 182 160 152 164 155 143 136 100 110 106 195 209 137 144 163 166 174 171 166 167 169 177 177 172 171 162 158 160 161 167 166 169 179 184 191 193 191 187 180 178 178 167 151 141 136 127 117 111 99 90 87 84 83 82 85 84 84 84 80 78 76 73 72 69 65
206 208 208 204 202 201 195 194 202 204 205 202 187 188 192 181 183 194 193 189 185 170 149 142 141 132 133 112 85 98 163 174 140 115 153 153 156 158 165 169 160 163 170 173 171 164 167 169 161 158 155 162 171 167 173 184 182 175 169 171 171 162 156 156 161 158 142 126 83 68 67 65 69 70 75 80 80 79 75 72 70 67 67 64 63
205 207 206 202 201 202 197 195 202 205 205 204 190 189 194 186 183 187 190 183 171 172 165 157 161 158 156 135 74 100 111 125 147 141 123 134 146 155 172 182 168 160 166 171 170 171 184 179 166 165 167 168 167 160 163 167 166 168 169 170 168 164 167 170 170 171 166 153 53 16 16 44 65 68 73 76 73 70 64 62 60 56 54 48 45
206 206 203 201 201 203 200 197 201 205 206 203 194 193 195 193 191 190 191 185 167 169 177 186 191 183 176 171 97 116 116 100 116 137 131 148 183 171 182 191 185 173 172 176 180 186 189 180 171 172 178 178 175 176 171 154 154 164 173 172 169 166 165 166 161 149 125 93 52 23 335 1 82 77 81 75 65 58 47 44 40 32 29 18 10
206 205 204 201 203 205 202 200 201 204 206 204 197 193 195 198 200 198 196 194 179 171 173 192 200 189 182 180 136 133 133 110 112 130 130 151 238 233 197 191 188 184 180 183 192 193 185 178 177 179 181 182 190 198 190 168 160 159 167 172 170 169 165 159 142 113 73 52 28 15 3 327 308 1 32 31 13 12 7 4 3 356 352 347 342
202 202 204 202 205 208 206 203 201 202 207 206 200 195 197 201 203 201 202 206 197 184 179 184 197 205 193 186 165 148 142 131 145 152 143 162 215 265 244 206 193 188 187 189 194 194 188 179 179 185 187 186 196 204 201 202 185 167 172 177 176 182 182 185 182 172 174 87 13 357 357 333 307 294 288 300 309 320 334 337 343 343 339 335 331
200 199 203 204 206 209 210 208 202 202 207 209 204 199 199 200 200 202 208 216 210 195 188 186 190 210 201 194 183 170 162 166 177 177 179 189 203 254 269 238 195 184 190 194 192 190 191 189 188 191 193 192 197 201 203 214 207 189 193 197 201 214 219 227 224 220 224 228 241 271 313 316 298 286 282 289 299 313 326 334 339 339 339 338 334
200 198 201 204 206 208 210 211 207 204 206 211 209 201 200 200 200 204 210 215 211 198 191 190 187 187 194 197 198 192 181 176 185 191 201 210 216 237 270 269 197 180 188 192 191 189 194 199 200 200 197 195 199 202 205 216 213 203 210 224 244 251 250 254 253 251 253 258 266 276 285 289 290 290 288 292 295 303 311 315 321 325 329 332 332
198 198 200 203 205 207 208 210 210 206 206 209 208 204 205 205 203 207 211 211 212 205 196 193 191 185 190 196 207 203 189 184 194 202 218 224 219 225 254 301 223 178 176 183 188 192 201 206 207 211 208 202 202 203 207 215 213 209 218 235 253 256 253 256 258 261 265 268 271 273 275 277 280 283 283 286 286 289 295 298 306 312 315 319 321
199 200 200 202 205 208 209 211 212 208 207 208 207 207 209 209 207 208 210 210 212 213 204 199 197 194 196 202 208 199 189 195 208 214 230 233 219 215 221 340 245 186 170 179 184 187 199 211 214 219 218 212 207 204 210 217 214 214 225 241 253 253 251 253 254 260 265 268 269 267 269 269 270 274 275 277 278 281 285 289 295 300 303 306 308
202 203 201 202 205 208 210 211 210 209 209 208 207 206 208 210 211 210 211 210 211 215 211 206 204 199 198 205 211 206 196 202 216 224 231 234 232 226 214 196 255 223 191 191 194 196 205 215 218 217 215 212 210 209 215 219 219 226 236 244 251 251 250 253 255 260 265 268 268 265 266 267 267 270 272 274 277 280 284 288 291 296 298 298 299
203 203 202 202 205 208 211 211 210 209 211 210 208 207 207 210 212 211 212 211 211 214 215 215 213 205 202 206 212 216 211 207 218 228 227 228 236 236 222 207 196 222 238 212 217 216 215 220 224 221 217 215 215 214 215 218 223 233 240 242 247 246 247 253 257 261 264 264 265 265 265 266 268 269 270 272 276 279 284 289 292 295 297 298 297
202 202 202 203 205 207 210 211 210 210 211 212 212 210 209 211 212 211 212 213 212 214 216 219 219 214 210 209 213 217 217 216 222 227 226 226 230 234 233 222 208 193 177 206 234 225 219 226 232 227 224 222 220 216 213 217 225 234 240 242 242 241 243 253 261 260 260 259 259 261 263 266 268 269 269 270 273 278 282 287 291 294 296 298 298
204 203 203 204 205 207 211 211 211 211 212 213 214 213 212 212 213 212 211 212 213 216 218 219 220 219 215 215 217 219 219 221 224 225 227 229 229 229 229 224 220 214 198 189 233 234 227 232 236 232 228 224 220 215 213 218 228 235 239 241 241 243 247 256 261 258 257 256 253 255 260 266 270 269 268 268 270 275 279 283 288 292 295 297 299
206 206 205 205 206 208 211 212 211 212 212 213 214 213 213 213 213 213 212 211 213 216 218 218 219 219 217 218 220 221 221 224 227 228 230 232 231 229 223 217 219 222 217 203 213 239 233 237 242 238 231 222 215 213 215 222 231 236 238 241 245 250 251 251 252 252 252 250 249 256 264 270 273 272 270 270 271 274 278 283 287 290 294 298 300
207 208 208 207 207 208 211 212 211 211 212 213 213 212 213 215 214 214 213 212 213 216 218 218 219 219 219 220 222 223 223 226 230 231 233 234 233 232 229 224 219 220 223 215 210 235 241 246 251 243 231 218 211 212 217 224 231 235 237 242 245 245 244 245 249 252 252 250 254 263 269 270 270 270 272 273 274 277 280 283 287 290 294 298 299
205 208 209 209 208 208 210 211 211 211 210 211 212 212 212 215 216 216 215 213 213 215 217 218 218 219 221 222 223 224 224 227 231 232 233 235 237 236 234 231 226 223 224 221 220 235 242 243 249 242 225 213 210 214 220 225 228 228 231 236 240 242 243 246 251 255 257 258 259 259 259 259 261 265 269 273 276 279 281 283 286 289 293 295 297
205 205 207 208 209 208 209 211 212 211 211 210 211 211 211 213 215 216 216 214 214 215 217 218 218 218 220 223 224 224 224 227 231 232 232 233 237 238 234 233 231 227 226 225 224 229 237 238 238 226 209 208 212 217 221 226 228 224 224 228 232 239 245 250 255 256 256 256 252 250 254 255 256 261 265 271 276 278 280 283 285 287 290 292 293
205 206 206 207 209 209 209 209 210 211 211 211 211 211 212 213 214 215 216 216 216 216 217 219 219 218 218 222 225 224 223 224 228 231 231 230 234 237 235 234 234 232 229 229 227 227 231 235 235 227 215 213 218 222 223 226 229 225 224 227 230 236 243 249 253 253 252 251 247 253 261 256 251 257 264 269 275 278 280 282 284 286 288 290 292
206 207 208 209 209 209 210 210 210 210 211 212 212 212 214 214 214 215 216 217 218 219 219 220 220 219 218 220 224 224 222 222 225 228 228 228 230 233 234 233 234 235 233 231 230 230 231 234 235 232 229 225 223 223 221 221 224 226 226 227 230 234 239 243 245 243 245 250 251 256 260 253 248 254 263 268 271 273 274 275 280 285 288 290 294
206 207 208 209 210 210 210 211 211 210 211 213 213 214 215 216 217 217 217 217 219 221 222 222 221 220 220 221 224 224 221 220 223 225 226 226 226 228 231 232 232 234 233 231 231 231 230 233 235 233 231 231 230 229 226 219 219 223 227 230 231 232 235 237 237 237 242 248 250 252 254 252 250 254 261 266 267 266 268 272 278 284 290 294 293
207 208 208 208 210 211 212 213 213 213 213 213 214 215 215 216 218 219 219 219 220 222 224 224 223 222 222 223 224 223 221 221 222 223 224 224 224 225 227 230 230 229 229 229 229 229 228 231 234 234 230 229 230 231 229 224 220 220 223 227 231 233 234 232 231 235 240 243 245 246 249 253 255 257 259 260 261 262 265 269 273 281 288 287 281
207 208 209 209 210 212 214 214 214 215 215 215 215 216 216 216 217 218 219 220 221 222 224 226 226 225 224 225 225 224 223 223 224 225 224 224 223 224 225 227 228 225 224 225 225 225 226 227 229 231 231 230 229 229 229 227 225 225 224 224 226 229 231 232 233 236 239 240 241 242 247 253 258 258 257 257 258 261 264 265 266 274 282 276 271
208 209 209 210 211 213 215 216 216 216 216 216 216 216 217 217 217 218 220 221 221 222 224 226 228 227 226 226 226 226 226 226 226 227 226 224 223 224 224 225 226 224 221 221 220 221 222 223 225 227 229 229 230 230 228 222 220 224 227 226 228 230 230 232 236 239 240 239 239 240 244 248 249 247 246 248 252 255 259 260 261 268 274 270 270
210 210 211 212 212 213 214 216 217 217 216 217 217 217 217 217 217 218 219 221 222 222 223 226 228 229 228 228 228 228 228 228 229 229 229 228 226 225 225 224 223 222 221 219 218 218 219 221 223 224 225 226 227 225 222 217 218 223 226 225 228 233 233 234 237 240 240 239 239 241 244 245 243 239 239 244 248 250 253 258 261 268 273 268 268
211 212 212 213 213 214 214 215 216 217 217 218 219 219 219 218 218 218 218 220 222 223 223 225 226 228 229 230 230 230 230 231 231 232 232 232 231 230 230 227 223 221 219 218 217 217 218 219 221 220 221 224 225 222 222 222 222 225 224 221 223 228 229 231 237 239 238 237 238 240 243 245 243 239 238 244 248 246 251 258 263 267 266 263 268
211 212 212 213 214 214 215 216 216 217 219 220 220 221 222 221 220 218 219 220 222 223 224 224 226 228 229 230 232 232 232 232 232 233 234 234 234 235 235 233 230 226 221 219 218 218 218 220 222 220 220 224 225 223 223 225 224 224 223 220 220 220 217 218 228 234 234 233 232 234 238 240 239 236 237 244 249 249 254 261 265 265 263 264 271
210 211 211 212 213 214 215 216 217 218 220 222 222 223 223 223 223 221 221 222 222 224 225 225 227 228 229 230 232 232 233 233 233 233 234 235 236 236 236 236 236 233 229 225 223 220 219 220 222 222 222 224 225 223 223 223 223 223 223 221 219 219 216 216 222 229 230 228 225 227 234 237 237 237 241 247 251 252 256 261 263 262 261 265 268
209 210 211 212 212 213 214 215 217 220 222 223 223 224 225 225 225 224 224 224 224 225 226 227 228 229 229 231 231 232 233 234 234 234 233 233 235 236 237 237 236 236 234 232 231 228 224 222 221 224 225 225 224 225 224 222 221 221 220 219 219 219 218 218 223 227 226 221 217 219 230 238 238 239 244 249 251 252 256 259 260 258 257 259 259
209 210 211 211 212 213 214 215 217 220 223 224 224 225 226 227 227 226 226 227 228 228 229 230 230 231 231 231 231 233 233 234 234 234 233 233 232 233 233 233 234 234 234 234 234 232 229 226 225 228 230 228 227 229 228 224 221 220 218 217 218 218 218 222 228 229 225 222 218 214 223 235 236 235 242 247 249 251 255 257 258 259 259 256 252
209 210 211 211 213 214 215 216 217 219 222 225 226 226 227 227 228 228 228 228 230 232 233 233 233 234 234 234 234 235 235 235 235 234 233 233 231 231 231 231 231 232 232 234 234 232 231 230 230 232 234 233 232 232 229 225 224 223 222 222 222 221 220 222 226 226 223 222 219 212 217 228 228 227 236 245 249 249 251 255 258 257 252 247 244
210 211 212 213 214 215 216 218 219 221 223 225 226 228 228 228 228 228 228 228 231 233 235 236 236 237 237 237 237 237 237 237 236 236 235 234 231 230 231 230 231 231 232 235 235 234 234 233 233 235 236 236 235 234 230 227 226 225 224 224 223 219 214 212 213 214 214 216 216 214 214 220 222 223 229 240 245 243 242 246 250 247 238 236 243
211 212 213 215 216 217 218 219 221 223 226 227 227 228 229 229 228 227 226 228 231 234 236 237 238 240 240 239 239 239 240 240 239 238 238 236 234 232 231 231 231 232 234 236 236 235 236 236 236 236 237 237 237 236 233 230 228 224 219 216 215 209 204 202 204 207 209 212 215 215 212 214 219 221 223 227 230 233 236 237 235 233 238 247 252
212 214 215 216 218 219 220 222 223 226 228 230 231 231 230 229 228 227 226 228 231 235 237 239 240 241 242 242 242 241 242 243 243 242 240 239 237 235 234 233 232 233 237 237 235 235 237 237 237 237 237 237 237 236 234 231 229 224 218 215 213 206 201 202 201 203 208 213 215 211 207 211 219 219 216 212 215 224 229 227 224 231 245 251 248
215 216 217 218 220 221 223 225 227 229 231 233 234 235 234 231 229 229 227 228 231 234 237 239 241 243 245 246 245 245 245 247 246 245 244 241 239 238 237 235 234 237 240 237 234 235 236 235 235 235 235 235 235 234 234 231 228 225 221 219 214 205 201 203 201 196 202 216 216 209 203 207 214 214 209 198 196 217 221 220 224 233 237 235 232